Regional Weather Roundup
Issued by NWS

Home | Current Version | Previous Version | Graphics & Text | Print | Product List | Glossary On
Versions: 1 2 3 4 5 6 7 8 9 10 11 12 13 14 15 16 17 18 19 20 21 22 23 24 25 26 27 28 29 30 31 32 33 34 35 36 37 38 39 40 41 42 43 44 45 46 47 48 49 50
000
ASUS43 KLSX 052207
RWRMO

WEATHER SUMMARY FOR MISSOURI
NATIONAL WEATHER SERVICE SPRINGFIELD MO
400 PM CST THU MAR 05 2015

NOTE: "FAIR" INDICATES FEW OR NO CLOUDS BELOW 12,000 FEET WITH NO
       SIGNIFICANT WEATHER AND/OR OBSTRUCTIONS TO VISIBILITY.
       CURRENT SKY AND/OR WEATHER CONDITIONS ARE NOT AVAILABLE FOR
       CHILLICOTHE AND FARMINGTON.

MOZ001>031-035>038-043-044-053-054-052300-
...NORTHERN AND WESTERN MISSOURI...

CITY           SKY/WX    TMP DP  RH WIND       PRES   REMARKS
KANSAS CTY INT SUNNY     30   4  33 VRB6      30.48F WCI  24
KANSAS C DTWN  SUNNY     33   3  28 VRB3      30.50F
LEE`S SUMMIT   SUNNY     31   2  29 E5        30.49F WCI  26
ST JOSEPH      SUNNY     29   3  33 VRB5      30.50F WCI  24
CHILLICOTHE      N/A     29   1  30 W6        30.52F WCI  23
KIRKSVILLE     SUNNY     26   3  37 W3        30.51S

$$
MOZ066>068-077>081-088>096-101>105-052300-
...SOUTHWEST MISSOURI...

CITY           SKY/WX    TMP DP  RH WIND       PRES   REMARKS
SPRINGFIELD    SUNNY     33  12  41 VRB6      30.48S WCI  28
JOPLIN         SUNNY     35  15  44 NW8       30.51S WCI  29

$$
MOZ032>034-039>042-045>050-055>058-069>072-052300-
...CENTRAL MISSOURI...

CITY           SKY/WX    TMP DP  RH WIND       PRES   REMARKS
COLUMBIA       SUNNY     29  10  45 NW9       30.51S WCI  20
JEFFERSON CITY SUNNY     29   6  38 W7        30.55R WCI  22
ROLLA          SUNNY     28   7  41 NW14      30.48R WCI  17
SEDALIA        SUNNY     29  10  45 W7        30.53S WCI  22
WHITEMAN AFB   SUNNY     29   6  37 VRB2      30.51S
WARRENSBURG    SUNNY     30   5  34 CALM      30.52S
OSAGE BEACH    SUNNY     30   9  40 NW5       30.51S WCI  25

$$
MOZ051-052-059>065-052300-
...EAST CENTRAL MISSOURI...

CITY           SKY/WX    TMP DP  RH WIND       PRES   REMARKS
ST LOUIS INTL  SUNNY     25   8  48 N8        30.55S WCI  16
SPIRIT OF STL  SUNNY     26   6  42 N5        30.54S WCI  20
ST CHARLES     SUNNY     24   6  46 NW9       30.55F WCI  14

$$
MOZ072>076-082>087-097>100-106>115-052300-
...SOUTH CENTRAL AND SOUTHEAST MISSOURI...

CITY           SKY/WX    TMP DP  RH WIND       PRES   REMARKS
CAPE GIRARDEAU SUNNY     26   9  48 NE9       30.54R WCI  17
FARMINGTON     SUNNY     27   7  43 N8G17     30.52R WCI  18
POPLAR BLUFF   SUNNY     26  12  55 SE12      30.52R WCI  16
WEST PLAINS    SUNNY     31   5  33 N13G20    30.48R WCI  21

$$



USA.gov is the U.S. government's official web portal to all federal, state and local government web resources and services.